Preview of NWS' New Version of Forecast
This preview is not operational and should not be used for support decisions.

Regional Weather Roundup (RWR)

Issued by National Weather Service (NWS)

                            
000
ASUS43 KDTX 240401
RWRMI 
MICHIGAN HOURLY REGIONAL WEATHER ROUNDUP
NATIONAL WEATHER SERVICE DETROIT/PONTIAC MI
1200 AM EDT FRI MAY 24 2019

NOTE: "FAIR" INDICATES FEW OR NO CLOUDS BELOW 12,000 FEET WITH NO
SIGNIFICANT WEATHER AND/OR OBSTRUCTION TO VISIBILITY.

MIZ047>049-052>055-059>063-066>070-074>076-081>083-240500-
SOUTHEAST LOWER MICHIGAN
  
CITY           SKY/WX    TMP DP  RH WIND       PRES   REMARKS
ADRIAN         FAIR      60  48  64 NW3       30.09R                  
ALMA           FAIR      56  48  73 W3        30.09S                  
ANN ARBOR      FAIR      56  48  74 W6        30.08R                  
BAD AXE        FAIR      57  47  71 NW3       30.03S                  
CARO           FAIR      52  48  86 CALM      30.05S                  
DETROIT CITY   FAIR      63  49  60 W6        30.05R                  
DETROIT        FAIR      62  48  60 W7        30.07R                  
FLINT          FAIR      56  48  74 W6        30.07R                  
GROSSE ILE     FAIR      61  49  65 W3        30.06R                  
HILLSDALE      FAIR      54  49  83 CALM      30.10S                  
HOWELL         FAIR      57  48  70 W5        30.08R                  

CITY           SKY/WX    TMP DP  RH WIND       PRES   REMARKS
JACKSON        FAIR      58  50  75 W3        30.09S                  
LAMBERTVILLE   FAIR      58  52  80 CALM      30.09R                  
LANSING        FAIR      56  49  77 NW6       30.09R                  
LAPEER         FAIR      60  48  65 NW3       30.06R                  
MASON          FAIR      60  50  71 NW3       30.09S                  
MONROE         FAIR      60  54  80 W5        30.07S                  
MT. CLEMENS    FAIR      62  51  68 W7        30.04R                  
PONTIAC        FAIR      59  49  69 W8        30.05R                  
PORT HOPE        N/A     58  32  37 W7        30.02R                  
TRI CITIES     FAIR      56  49  77 W7        30.07R                  
MIDLAND        FAIR      54  49  82 W3        30.06R                  
TROY           FAIR      64  45  51 W5        30.08R                  
SAGINAW HB     FAIR      59  50  72 W8        30.06S                  
$$
MIZ043>046-050>051-056>058-064>065-071>073-077>080-240500-
SOUTHWEST LOWER MICHIGAN
  
CITY           SKY/WX    TMP DP  RH WIND       PRES   REMARKS
BATTLE CREEK   FAIR      57  50  77 CALM      30.10S                  
BENTON HARBOR  FAIR      54  49  83 CALM      30.10R                  
BIG RAPIDS     FAIR      55  47  74 NW5       30.08S                  
COLDWATER      FAIR      55  53  92 CALM      30.10S                  
FREMONT        FAIR      53  46  75 NW6       30.10R                  
HOLLAND        FAIR      54  50  86 W3        30.11R                  
GRAND RAPIDS   FAIR      57  49  74 W6        30.09S                  
IONIA          FAIR      58  47  66 NW5       30.08S                  
KALAMAZOO      FAIR      59  49  69 CALM      30.10S                  
LUDINGTON      FAIR      50  44  78 W3        30.09F                  
MOUNT PLEASANT FAIR      56  48  75 W5        30.07S                  
MUSKEGON       FAIR      52  45  77 CALM      30.10S                  
SOUTH HAVEN    FAIR      53  49  89 CALM      30.10S                  
$$
MIZ016>042-240500-
NORTHERN LOWER MICHIGAN
  
CITY           SKY/WX    TMP DP  RH WIND       PRES   REMARKS
ALPENA         FAIR      54  49  83 W7        30.03R                  
BEAVER ISLAND  CLOUDY    47  44  91 NW5       30.08S                  
BELLAIRE       CLOUDY    55  47  74 N5        30.08S                  
CADILLAC       CLOUDY    55  50  84 NW6       30.07R                  
CHARLEVOIX     FAIR      46  44  92 N3        30.11R                  
FRANKFORT      FAIR      54  49  84 N3        30.09R                  
GAYLORD        MOCLDY    50  47  89 NW5       30.06R                  
GRAYLING       CLOUDY    54  50  85 NW7       30.06R                  
HARBOR SPRINGS FAIR      45  44  97 CALM      30.07R                  
HOUGHTON LAKE  MOCLDY    56  48  74 NW12      30.06R                  
MANISTEE       CLOUDY    50  46  86 W5        30.09R                  
OSCODA         FAIR      53  46  77 W5        30.02S                  
PELLSTON       FAIR      48  45  89 W8        30.07R                  
ROGERS CITY    MOCLDY    52  48  86 NW6       30.05R                  
TRAVERSE CITY  CLOUDY    53  49  86 N7        30.08R                  
$$
MIZ007>008-015-240500-
EASTERN UPPER MICHIGAN
  
CITY           SKY/WX    TMP DP  RH WIND       PRES   REMARKS
KINROSS        CLOUDY    46  45  96 N14       30.05S                  
MACKINAC ISLAN CLOUDY    50  47  90 NW5       30.05S                  
NEWBERRY       CLOUDY    47  45  92 NW7       30.07R                  
S. S. MARIE    CLOUDY    44  43  96 NW15G22   30.05S FOG              
MUNISING         N/A     45  42  89 NW12      30.10S                  
$$
MIZ004>006-011>014-085-240500-
CENTRAL UPPER MICHIGAN
  
CITY           SKY/WX    TMP DP  RH WIND       PRES   REMARKS
MANISTIQUE     CLOUDY    50  47  89 N12       30.08S                  
ESCANABA       MOCLDY    52  47  83 N3        30.10R                  
MENOMINEE      FAIR      54  49  83 N8        30.10S                  
SAWYER-GWINN   CLOUDY    50  45  84 N12       30.09F                  
$$
MIZ001>003-009>011-084-240500-
WESTERN UPPER MICHIGAN
  
CITY           SKY/WX    TMP DP  RH WIND       PRES   REMARKS
IRON MOUNTAIN  FAIR      49  46  90 NW6       30.09R                  
HOUGHTON       CLOUDY    45  42  89 N10       30.13S                  
COPPER HARBOR    N/A     44  42  93 N9        30.14R                  
IRONWOOD       LGT RAIN  48  46  93 NE5       30.15R                  
$$

ABBREVIATIONS USED IN REMARKS
   TC - TEMPERATURE IN CELSIUS
  WCI - WIND CHILL INDEX
   HX - HEAT INDEX
  VSB - VISIBILITY